Tracking 34408 objects as of 13-Jun-2026
HD Live streaming from Space Station
objects crossing your sky now

THORAD AGENA D DEB

Track THORAD AGENA D DEB now!
10-day predictions


NORAD ID: 19667
Int'l Code: 1970-025QC
Perigee: 1,064.4 km
Apogee: 1,582.7 km
Inclination: 99.7 °
Period: 112.0 minutes
Semi major axis: 7694 km
RCS: 0.0155 m2 (small)
Launch date: April 8, 1970
Source: United States (US)
Launch site: AIR FORCE WESTERN TEST RANGE (AFWTR)

Note: This is SATELLITE DEBRIS
Your satellite tracking list
Your tracking list is empty




NASA's NSSDC Master Catalog

Two Line Element Set (TLE):
1 19667U 70025QC  26163.01992977  .00000600  00000-0  19989-2 0  9999
2 19667  99.7470  70.3978 0336843 142.8360 240.1991 12.86260643781192
Source of the keplerian elements: AFSPC